TimeEST,TemperatureF,Dew PointF,Humidity,Sea Level PressureIn,VisibilityMPH,Wind Direction,Wind SpeedMPH,Gust SpeedMPH,PrecipitationIn,Events,Conditions,WindDirDegrees,DateUTC
12:15 AM,53.6,53.6,100,30.02,2.5,Calm,Calm,-,N/A,,Overcast,0,2012-12-10 05:15:00
12:35 AM,55.4,53.6,94,30.02,2.0,Calm,Calm,-,N/A,,Overcast,0,2012-12-10 05:35:00
12:55 AM,55.4,53.6,94,30.01,0.5,Calm,Calm,-,N/A,,Overcast,0,2012-12-10 05:55:00
1:15 AM,57.2,55.4,94,29.99,0.2,Calm,Calm,-,N/A,,Overcast,0,2012-12-10 06:15:00
1:35 AM,57.2,55.4,94,29.98,0.2,Calm,Calm,-,N/A,,Overcast,0,2012-12-10 06:35:00
1:55 AM,57.2,55.4,94,29.98,0.5,Calm,Calm,-,N/A,,Overcast,0,2012-12-10 06:55:00
2:15 AM,59.0,55.4,88,29.98,0.5,Calm,Calm,-,N/A,,Overcast,0,2012-12-10 07:15:00
2:35 AM,57.2,55.4,94,29.98,0.2,Calm,Calm,-,N/A,,Overcast,0,2012-12-10 07:35:00
2:55 AM,57.2,55.4,94,29.97,0.2,Calm,Calm,-,N/A,,Overcast,0,2012-12-10 07:55:00
3:15 AM,57.2,55.4,94,29.96,0.2,Calm,Calm,-,N/A,,Overcast,0,2012-12-10 08:15:00
3:35 AM,57.2,55.4,94,29.94,0.8,Calm,Calm,-,N/A,,Overcast,0,2012-12-10 08:35:00
3:55 AM,55.4,55.4,100,29.94,0.5,Calm,Calm,-,N/A,,Overcast,0,2012-12-10 08:55:00
4:15 AM,55.4,55.4,100,29.94,0.8,Calm,Calm,-,N/A,,Overcast,0,2012-12-10 09:15:00
4:35 AM,55.4,55.4,100,29.94,0.8,Calm,Calm,-,N/A,,Overcast,0,2012-12-10 09:35:00
4:55 AM,55.4,55.4,100,29.93,2.0,Calm,Calm,-,N/A,,Overcast,0,2012-12-10 09:55:00
5:15 AM,57.2,55.4,94,29.91,4.0,Calm,Calm,-,N/A,,Overcast,0,2012-12-10 10:15:00
5:35 AM,57.2,55.4,94,29.91,2.5,Calm,Calm,-,N/A,,Overcast,0,2012-12-10 10:35:00
5:55 AM,57.2,55.4,94,29.91,4.0,SSW,5.8,-,N/A,,Overcast,200,2012-12-10 10:55:00
6:15 AM,59.0,55.4,88,29.91,5.0,SSW,8.1,-,N/A,,Overcast,210,2012-12-10 11:15:00
6:35 AM,59.0,55.4,88,29.91,7.0,SSW,5.8,-,N/A,,Overcast,210,2012-12-10 11:35:00
6:55 AM,59.0,57.2,94,29.90,3.0,SW,8.1,-,N/A,,Overcast,220,2012-12-10 11:55:00
7:55 AM,59.0,57.2,94,29.89,4.0,SW,6.9,-,N/A,,Overcast,220,2012-12-10 12:55:00
8:55 AM,60.8,59.0,94,29.89,4.0,SW,6.9,-,N/A,,Overcast,220,2012-12-10 13:55:00
9:55 AM,60.8,59.0,94,29.88,4.0,SSW,6.9,-,N/A,,Overcast,210,2012-12-10 14:55:00
10:55 AM,62.6,57.2,82,29.86,7.0,South,9.2,-,N/A,,Overcast,190,2012-12-10 15:55:00
11:55 AM,66.2,57.2,73,29.84,10.0,SSW,8.1,-,N/A,,Overcast,200,2012-12-10 16:55:00
12:55 PM,66.2,57.2,73,29.81,10.0,SW,16.1,23.0,N/A,,Overcast,220,2012-12-10 17:55:00
1:55 PM,66.2,57.2,73,29.78,10.0,SW,13.8,23.0,N/A,,Overcast,220,2012-12-10 18:55:00
2:55 PM,68.0,57.2,68,29.77,10.0,SSW,15.0,23.0,N/A,,Overcast,210,2012-12-10 19:55:00
3:55 PM,68.0,55.4,64,29.75,10.0,SW,13.8,-,N/A,,Mostly Cloudy,230,2012-12-10 20:55:00
4:55 PM,68.0,55.4,64,29.76,10.0,SSW,12.7,17.3,N/A,,Mostly Cloudy,210,2012-12-10 21:55:00
5:55 PM,62.6,57.2,82,29.77,10.0,SSW,9.2,-,N/A,,Mostly Cloudy,210,2012-12-10 22:55:00
6:55 PM,62.6,59.0,88,29.76,10.0,South,4.6,-,N/A,,Scattered Clouds,170,2012-12-10 23:55:00
7:55 PM,62.6,57.2,82,29.76,10.0,SSW,9.2,-,N/A,,Mostly Cloudy,210,2012-12-11 00:55:00
8:15 PM,62.6,57.2,82,29.76,10.0,SSW,9.2,17.3,N/A,,Mostly Cloudy,200,2012-12-11 01:15:00
8:35 PM,62.6,55.4,77,29.76,10.0,SSW,10.4,-,N/A,,Scattered Clouds,210,2012-12-11 01:35:00
8:55 PM,62.6,55.4,77,29.76,10.0,SW,10.4,20.7,N/A,,Mostly Cloudy,220,2012-12-11 01:55:00
9:15 PM,62.6,57.2,82,29.76,10.0,SSW,9.2,21.9,N/A,,Overcast,210,2012-12-11 02:15:00
9:35 PM,62.6,57.2,82,29.76,10.0,SSW,12.7,16.1,N/A,,Overcast,210,2012-12-11 02:35:00
9:55 PM,62.6,57.2,82,29.76,10.0,SW,10.4,-,N/A,,Overcast,220,2012-12-11 02:55:00
10:15 PM,62.6,57.2,82,29.75,10.0,SSW,12.7,17.3,N/A,,Overcast,200,2012-12-11 03:15:00
10:35 PM,62.6,57.2,82,29.75,10.0,SSW,11.5,20.7,N/A,,Overcast,200,2012-12-11 03:35:00
10:55 PM,62.6,57.2,82,29.77,10.0,SW,11.5,18.4,N/A,,Overcast,220,2012-12-11 03:55:00
11:15 PM,62.6,57.2,82,29.77,10.0,SW,10.4,17.3,N/A,,Overcast,230,2012-12-11 04:15:00
11:35 PM,62.6,57.2,82,29.77,10.0,SW,12.7,19.6,N/A,,Overcast,220,2012-12-11 04:35:00
11:55 PM,62.6,57.2,82,29.77,10.0,SSW,10.4,-,N/A,,Overcast,200,2012-12-11 04:55:00